• In Netherlands
  • List of Countries
  • For 7 days
  • Water Temperature
  • Satellite Maps
  • Weather Map
  • Weather Widgets
  • user-avatar
    Login

    Hourly Weather Viedma

    Today, 24 June, Saturday

    Time Temperature Precipitation Wind Pressure Humidity
    00:00 +8°C° 0 mm 3 mps 761 mmHg 71%
    01:00 +8°C° 0 mm 3 mps 761 mmHg 72%
    02:00 +8°C° 0 mm 3 mps 761 mmHg 74%
    03:00 +8°C° 0 mm 3 mps 761 mmHg 75%
    04:00 +8°C° 0 mm 3 mps 761 mmHg 76%
    05:00 +7°C° 0 mm 4 mps 761 mmHg 77%
    06:00 +7°C° 0 mm 4 mps 761 mmHg 78%
    07:00 +7°C° 0 mm 4 mps 762 mmHg 79%
    08:00 +7°C° 0 mm 4 mps 762 mmHg 80%
    09:00 +8°C° 0.1 mm 4 mps 762 mmHg 77%
    10:00 +10°C° 0.1 mm 4 mps 762 mmHg 74%
    11:00 +11°C° 0.1 mm 4 mps 763 mmHg 71%
    12:00 +12°C° 0 mm 5 mps 762 mmHg 69%
    13:00 +11°C° 0 mm 6 mps 761 mmHg 67%
    14:00 +12°C° 0 mm 7 mps 761 mmHg 64%
    15:00 +11°C° 0 mm 7 mps 761 mmHg 67%
    16:00 +11°C° 0 mm 7 mps 761 mmHg 69%
    17:00 +10°C° 0 mm 8 mps 761 mmHg 71%
    18:00 +10°C° 0 mm 8 mps 760 mmHg 72%
    19:00 +10°C° 0 mm 8 mps 760 mmHg 74%
    20:00 +10°C° 0 mm 9 mps 760 mmHg 75%
    21:00 +10°C° 0.1 mm 9 mps 760 mmHg 78%
    22:00 +10°C° 0.1 mm 9 mps 760 mmHg 81%
    23:00 +10°C° 0.1 mm 9 mps 760 mmHg 84%

    Tomorrow, 25 June, Sunday

    Time Temperature Precipitation Wind Pressure Humidity
    00:00 +10°C° 0.2 mm 9 mps 760 mmHg 86%
    01:00 +10°C° 0.2 mm 8 mps 759 mmHg 88%
    02:00 +10°C° 0.2 mm 8 mps 759 mmHg 91%
    03:00 +10°C° 0.2 mm 8 mps 758 mmHg 92%
    04:00 +11°C° 0.2 mm 7 mps 758 mmHg 93%
    05:00 +11°C° 0.2 mm 7 mps 757 mmHg 94%
    06:00 +11°C° 0.3 mm 6 mps 757 mmHg 95%
    07:00 +11°C° 0.3 mm 6 mps 757 mmHg 96%
    08:00 +12°C° 0.3 mm 5 mps 757 mmHg 97%
    09:00 +13°C° 0.2 mm 5 mps 756 mmHg 97%
    10:00 +13°C° 0.2 mm 5 mps 756 mmHg 97%
    11:00 +13°C° 0.2 mm 4 mps 756 mmHg 97%
    12:00 +14°C° 0.3 mm 4 mps 756 mmHg 96%
    13:00 +14°C° 0.3 mm 3 mps 755 mmHg 96%
    14:00 +14°C° 0.3 mm 3 mps 754 mmHg 96%
    15:00 +14°C° 0.4 mm 3 mps 754 mmHg 97%
    16:00 +14°C° 0.4 mm 3 mps 754 mmHg 97%
    17:00 +15°C° 0.4 mm 2 mps 754 mmHg 98%
    18:00 +14°C° 0.9 mm 3 mps 754 mmHg 98%
    19:00 +14°C° 0.9 mm 3 mps 755 mmHg 98%
    20:00 +14°C° 0.9 mm 3 mps 755 mmHg 98%
    21:00 +14°C° 0.4 mm 3 mps 755 mmHg 98%
    22:00 +14°C° 0.4 mm 3 mps 755 mmHg 97%
    23:00 +14°C° 0.4 mm 3 mps 755 mmHg 97%

    Day after tomorrow, 26 June, Monday

    Time Temperature Precipitation Wind Pressure Humidity
    00:00 +14°C° 0 mm 3 mps 755 mmHg 96%
    01:00 +14°C° 0 mm 3 mps 755 mmHg 95%
    02:00 +13°C° 0 mm 3 mps 756 mmHg 94%
    03:00 +13°C° 0 mm 4 mps 756 mmHg 94%
    04:00 +13°C° 0 mm 4 mps 756 mmHg 94%
    05:00 +13°C° 0 mm 5 mps 756 mmHg 93%
    06:00 +12°C° 0 mm 5 mps 757 mmHg 93%
    07:00 +12°C° 0 mm 5 mps 757 mmHg 93%
    08:00 +10°C° 0 mm 5 mps 758 mmHg 93%
    09:00 +12°C° 0 mm 5 mps 758 mmHg 87%
    10:00 +11°C° 0 mm 6 mps 759 mmHg 81%
    11:00 +13°C° 0 mm 6 mps 759 mmHg 76%
    12:00 +13°C° 0 mm 6 mps 759 mmHg 76%
    13:00 +12°C° 0 mm 7 mps 759 mmHg 77%
    14:00 +11°C° 0 mm 7 mps 759 mmHg 78%
    15:00 +11°C° 0 mm 7 mps 759 mmHg 80%
    16:00 +11°C° 0 mm 7 mps 760 mmHg 82%
    17:00 +10°C° 0 mm 7 mps 760 mmHg 84%
    18:00 +10°C° 0 mm 7 mps 760 mmHg 84%
    19:00 +10°C° 0 mm 7 mps 761 mmHg 84%
    20:00 +10°C° 0 mm 7 mps 761 mmHg 83%
    21:00 +10°C° 0 mm 7 mps 761 mmHg 83%
    22:00 +9°C° 0 mm 7 mps 761 mmHg 83%
    23:00 +9°C° 0 mm 7 mps 761 mmHg 83%

    27 June, Tuesday

    Time Temperature Precipitation Wind Pressure Humidity
    00:00 +9°C° 0 mm 7 mps 761 mmHg 83%
    01:00 +9°C° 0 mm 7 mps 761 mmHg 83%
    02:00 +9°C° 0 mm 7 mps 761 mmHg 83%
    03:00 +9°C° 0 mm 7 mps 761 mmHg 83%
    04:00 +8°C° 0 mm 6 mps 761 mmHg 84%
    05:00 +8°C° 0 mm 6 mps 760 mmHg 84%
    06:00 +8°C° 0 mm 6 mps 761 mmHg 83%
    07:00 +8°C° 0 mm 6 mps 761 mmHg 83%
    08:00 +8°C° 0 mm 6 mps 761 mmHg 82%
    09:00 +9°C° 0 mm 6 mps 761 mmHg 81%
    10:00 +9°C° 0 mm 7 mps 761 mmHg 80%
    11:00 +9°C° 0 mm 7 mps 761 mmHg 79%
    12:00 +9°C° 0 mm 7 mps 761 mmHg 78%
    13:00 +9°C° 0 mm 6 mps 760 mmHg 78%
    14:00 +9°C° 0 mm 6 mps 760 mmHg 78%
    15:00 +9°C° 0 mm 6 mps 760 mmHg 78%
    16:00 +8°C° 0 mm 5 mps 760 mmHg 79%
    17:00 +8°C° 0 mm 4 mps 760 mmHg 80%
    18:00 +8°C° 0 mm 4 mps 760 mmHg 81%
    19:00 +9°C° 0 mm 3 mps 760 mmHg 82%
    20:00 +9°C° 0 mm 3 mps 760 mmHg 82%
    21:00 +8°C° 0 mm 3 mps 760 mmHg 83%
    22:00 +8°C° 0 mm 2 mps 761 mmHg 84%
    23:00 +8°C° 0 mm 2 mps 761 mmHg 84%

    28 June, Wednesday

    Time Temperature Precipitation Wind Pressure Humidity
    00:00 +8°C° 0 mm 2 mps 761 mmHg 85%
    01:00 +8°C° 0 mm 3 mps 761 mmHg 86%
    02:00 +8°C° 0 mm 3 mps 761 mmHg 86%
    03:00 +8°C° 0 mm 3 mps 760 mmHg 87%
    04:00 +8°C° 0 mm 3 mps 760 mmHg 88%
    05:00 +8°C° 0 mm 3 mps 760 mmHg 88%
    06:00 +8°C° 0 mm 3 mps 760 mmHg 88%
    07:00 +8°C° 0 mm 3 mps 760 mmHg 88%
    08:00 +8°C° 0 mm 3 mps 760 mmHg 87%
    09:00 +8°C° 0 mm 3 mps 760 mmHg 82%
    10:00 +8°C° 0 mm 4 mps 760 mmHg 77%
    11:00 +10°C° 0 mm 4 mps 761 mmHg 72%
    12:00 +11°C° 0 mm 4 mps 760 mmHg 68%
    13:00 +12°C° 0 mm 4 mps 760 mmHg 65%
    14:00 +13°C° 0 mm 4 mps 759 mmHg 61%
    15:00 +12°C° 0 mm 4 mps 759 mmHg 65%
    16:00 +12°C° 0 mm 4 mps 759 mmHg 68%
    17:00 +11°C° 0 mm 4 mps 759 mmHg 72%
    18:00 +10°C° 0 mm 4 mps 759 mmHg 75%
    19:00 +10°C° 0 mm 4 mps 759 mmHg 78%
    20:00 +10°C° 0 mm 4 mps 759 mmHg 81%
    21:00 +8°C° 0 mm 4 mps 759 mmHg 82%
    22:00 +8°C° 0 mm 5 mps 759 mmHg 83%
    23:00 +8°C° 0 mm 5 mps 758 mmHg 84%

    29 June, Thursday

    Time Temperature Precipitation Wind Pressure Humidity
    00:00 +8°C° 0 mm 5 mps 758 mmHg 83%
    01:00 +7°C° 0 mm 5 mps 758 mmHg 82%
    02:00 +7°C° 0 mm 5 mps 758 mmHg 81%
    03:00 +7°C° 0 mm 5 mps 757 mmHg 81%
    04:00 +7°C° 0 mm 6 mps 757 mmHg 80%
    05:00 +7°C° 0 mm 6 mps 757 mmHg 80%
    06:00 +7°C° 0 mm 6 mps 757 mmHg 80%
    07:00 +7°C° 0 mm 6 mps 757 mmHg 79%
    08:00 +7°C° 0 mm 6 mps 757 mmHg 79%
    09:00 +8°C° 0 mm 6 mps 757 mmHg 74%
    10:00 +9°C° 0 mm 7 mps 757 mmHg 68%
    11:00 +11°C° 0 mm 7 mps 758 mmHg 63%
    12:00 +12°C° 0 mm 7 mps 757 mmHg 59%
    13:00 +14°C° 0 mm 6 mps 757 mmHg 54%
    14:00 +15°C° 0 mm 6 mps 757 mmHg 50%
    15:00 +15°C° 0 mm 6 mps 758 mmHg 55%
    16:00 +14°C° 0 mm 5 mps 758 mmHg 59%
    17:00 +13°C° 0 mm 5 mps 759 mmHg 63%
    18:00 +13°C° 0 mm 5 mps 760 mmHg 65%
    19:00 +12°C° 0 mm 5 mps 761 mmHg 66%
    20:00 +10°C° 0 mm 6 mps 761 mmHg 67%
    21:00 +10°C° 0 mm 6 mps 762 mmHg 68%
    22:00 +9°C° 0 mm 6 mps 763 mmHg 68%
    23:00 +9°C° 0 mm 6 mps 763 mmHg 68%
    Show more